Wind_Speed
75 76 77 78 78 78 78 78 79 79 78 78 78 78 78 79 81 82 83 83 82 82 82 82 83 84 85 86 86 85 84 84 84 85 85 86 86 86 86 87 87 87 86 86 86 85 85 85 85 84 83 82 81 81 82 82 82 80 79 79 79 78 79 80 79 77 76 76 75 75 74 73 71 69 68 68 67 67 68 70 71 70 69 69 68
81 81 81 81 80 80 80 81 81 82 82 82 81 81 80 80 80 82 83 84 83 82 82 83 83 84 84 86 88 89 88 87 87 87 87 88 87 87 87 87 88 89 89 89 88 88 86 85 84 84 84 83 82 81 81 82 83 82 81 80 79 78 78 79 79 78 77 76 76 75 76 75 74 72 71 69 68 69 70 71 72 72 71 70 69
85 84 83 82 81 81 82 82 83 83 84 84 82 81 80 79 79 80 80 81 81 81 81 81 82 82 83 84 86 88 90 91 91 91 91 91 91 89 87 87 87 89 90 90 91 91 90 88 86 85 85 84 83 83 82 82 82 82 82 81 79 78 78 78 79 78 78 78 77 76 76 76 75 74 73 72 71 71 71 73 73 73 73 72 71
85 84 84 84 83 83 83 84 84 85 86 87 87 86 85 84 84 84 84 84 84 84 83 83 83 83 83 83 84 86 88 90 92 94 96 97 97 96 93 90 89 89 89 91 92 92 92 90 89 87 86 85 84 84 84 83 82 81 81 81 80 79 78 79 79 79 79 79 79 77 76 76 76 76 75 75 74 73 73 74 74 74 74 74 72
87 87 87 87 87 88 88 88 89 90 90 91 91 92 91 91 92 92 92 93 93 93 93 92 90 89 87 87 86 86 86 88 90 93 95 98 100 101 101 99 95 92 90 91 92 92 91 90 89 88 87 85 85 85 84 84 83 82 80 79 79 79 79 80 80 80 80 80 80 80 79 78 77 77 77 76 76 75 75 75 75 75 75 75 74
90 91 91 92 92 93 94 94 95 95 96 96 96 97 97 97 97 97 98 99 99 99 99 98 97 96 94 93 92 91 90 90 91 92 94 96 99 102 104 105 104 100 96 92 91 91 89 88 87 86 86 85 84 84 84 83 82 81 80 79 79 79 80 81 81 82 82 81 81 81 81 80 79 79 78 78 77 77 77 76 76 76 76 76 75
95 96 97 98 98 99 99 99 100 100 100 100 101 101 101 101 101 101 101 101 102 102 102 101 101 100 99 98 97 97 96 96 96 97 98 98 99 101 103 105 107 107 104 100 95 92 90 88 87 86 85 84 83 83 83 83 81 80 79 78 79 80 80 81 82 83 83 82 82 82 82 82 82 81 80 80 80 79 79 79 79 79 78 77 77
100 100 101 101 101 102 102 102 103 103 103 103 103 103 103 103 104 104 104 104 104 103 103 103 102 102 101 100 100 100 100 100 100 101 103 103 103 103 103 104 106 108 109 107 103 98 95 92 91 89 88 86 85 84 83 83 83 81 78 78 78 79 79 80 81 82 82 82 82 82 82 83 82 82 82 82 82 81 80 80 80 79 78 78 78
101 101 101 100 100 100 100 100 100 100 100 100 100 101 101 101 102 102 103 103 104 104 104 104 103 103 102 102 101 101 101 101 101 102 104 106 107 108 107 107 107 107 109 110 108 104 100 97 95 93 91 90 89 88 86 85 84 83 81 81 80 78 78 78 79 80 81 80 80 80 82 83 82 82 82 81 81 80 79 79 79 79 79 79 79
97 96 95 94 94 93 92 92 91 91 92 92 92 93 93 94 95 96 97 98 100 101 102 102 103 103 104 103 103 102 102 101 101 101 103 104 106 108 110 110 110 110 109 110 110 108 105 102 99 97 95 94 93 93 92 89 88 87 86 86 86 83 80 78 78 78 79 79 79 79 79 80 80 81 81 79 79 80 80 78 78 79 80 81 80
90 88 87 86 85 84 83 83 83 83 83 84 84 85 86 87 88 89 91 92 94 95 97 99 100 102 103 104 104 104 104 103 102 102 103 104 105 107 109 111 112 112 112 112 111 111 109 106 104 102 99 97 97 97 97 95 93 91 91 91 91 89 86 83 80 79 79 79 79 80 79 77 76 77 79 79 79 80 80 79 79 80 81 82 82
83 81 80 79 79 78 78 78 77 77 78 78 79 80 81 82 83 84 86 87 89 90 92 94 96 98 99 101 102 103 104 104 104 104 105 105 106 107 109 111 112 113 112 112 113 113 113 111 108 106 104 102 101 100 100 99 98 96 95 95 94 92 91 89 86 83 82 81 80 81 80 78 76 76 75 76 78 79 80 80 81 81 82 83 83
76 75 75 75 74 74 75 75 74 74 75 75 76 77 78 79 80 81 83 84 85 87 88 90 91 93 94 96 98 99 100 101 103 105 106 108 108 109 111 112 113 114 114 114 113 113 114 114 113 111 109 107 106 105 103 102 101 100 99 99 97 95 93 92 91 89 87 86 84 83 81 79 79 78 75 73 75 78 80 80 80 82 82 83 84
70 70 70 70 70 71 71 71 72 72 73 74 74 75 76 77 78 79 81 82 83 84 84 85 86 87 88 90 92 93 94 95 97 100 103 105 107 110 112 113 114 115 115 116 116 115 115 115 116 115 113 111 110 109 107 106 105 104 103 102 101 98 96 94 93 93 92 91 90 87 85 83 83 81 78 75 73 74 77 78 80 82 83 82 82
66 66 66 66 67 68 68 69 69 70 71 72 73 74 75 76 77 79 80 80 81 81 82 82 82 83 84 85 87 88 88 89 91 93 96 99 101 105 108 111 114 115 116 116 117 117 117 117 117 117 116 115 113 111 110 109 109 108 106 105 103 101 99 96 94 94 95 95 94 92 90 88 87 86 83 79 75 73 74 76 79 82 84 84 85
63 63 64 64 65 66 67 68 69 70 71 72 73 74 75 76 78 79 80 80 80 81 81 82 82 82 82 83 85 85 84 84 86 88 90 92 95 98 101 104 108 111 114 115 116 118 119 119 119 120 119 118 116 114 112 112 112 112 111 109 106 104 101 98 96 95 96 97 97 95 93 90 90 90 88 84 79 75 75 76 78 80 84 86 88
63 63 64 65 66 67 68 69 70 71 72 73 74 75 76 77 79 80 81 80 80 81 82 82 82 82 83 83 84 84 82 82 84 87 88 89 91 93 95 97 100 102 106 109 112 115 117 118 119 121 121 121 120 118 116 114 113 114 114 112 110 107 104 100 98 97 98 99 98 97 95 93 91 90 91 90 86 80 78 78 76 77 81 85 87
64 65 66 67 68 69 70 70 71 72 73 73 74 75 76 77 78 79 80 80 80 81 82 82 81 81 82 82 82 83 82 81 83 85 87 88 90 92 93 94 95 95 97 99 102 106 110 112 115 117 119 121 121 120 119 117 116 115 115 115 114 112 108 105 102 101 100 100 100 99 97 96 94 91 91 93 92 88 83 77 75 76 79 82 85
66 66 67 68 69 70 70 70 71 72 72 73 74 75 76 77 78 78 79 79 79 79 79 79 77 77 77 77 77 78 78 77 79 82 83 84 87 89 91 92 92 92 93 94 94 96 99 101 104 107 111 113 115 116 117 118 118 118 117 116 116 115 113 110 107 106 105 104 102 101 99 98 96 94 92 92 93 93 89 81 76 77 79 79 82
67 67 67 68 68 69 69 70 70 71 72 72 73 75 76 77 76 76 75 75 75 74 74 74 72 69 68 68 68 68 69 69 69 72 74 75 78 81 83 86 87 89 90 92 92 91 92 92 94 96 99 102 104 106 108 110 112 115 117 117 117 117 115 113 111 110 109 108 106 104 102 100 98 96 94 93 93 93 92 88 83 80 77 78 81
66 66 66 67 67 67 68 69 70 71 71 72 73 74 74 74 73 72 72 70 70 69 67 66 63 60 60 60 60 60 60 60 59 61 63 64 66 69 72 74 77 81 83 86 88 88 89 90 90 91 93 94 95 96 97 99 102 106 110 114 115 115 113 113 113 113 112 111 110 108 106 104 102 99 96 94 93 92 91 91 89 85 81 79 80
65 65 65 65 65 66 67 68 69 70 70 71 72 72 71 70 70 68 67 65 65 63 61 59 57 55 54 54 54 54 55 55 55 57 59 60 62 64 66 67 69 72 74 75 78 80 83 86 88 89 91 92 93 92 93 93 95 97 101 105 108 109 108 109 110 112 113 112 111 110 109 107 105 102 98 95 93 91 89 89 91 90 87 83 81
63 64 64 64 65 66 67 67 68 68 68 69 70 69 68 67 65 63 62 63 62 60 57 55 52 50 48 48 49 50 52 54 56 58 60 62 64 65 66 67 69 70 70 68 69 71 73 76 79 82 86 89 91 91 91 91 92 93 94 96 99 101 103 104 106 109 111 112 112 111 110 108 106 104 101 97 93 91 89 88 89 92 92 90 87
63 63 64 64 65 65 65 65 65 66 67 67 67 67 65 61 59 59 61 63 61 58 55 51 48 45 44 45 48 51 54 57 59 61 63 65 67 68 69 70 71 72 72 70 68 68 68 68 69 72 75 79 83 87 89 90 90 90 91 92 94 96 99 101 103 105 107 110 111 110 109 108 106 104 102 99 95 92 91 90 90 92 93 93 92
63 64 64 64 64 64 64 63 63 64 65 66 65 63 59 56 56 58 61 62 60 57 52 48 45 44 44 46 48 51 54 56 56 58 60 62 64 66 69 71 73 74 74 73 72 72 71 69 68 68 69 71 73 77 82 85 87 88 89 90 91 94 97 98 99 101 102 104 106 107 106 106 105 103 101 99 98 96 94 93 92 92 93 94 94
63 63 63 63 63 62 62 61 61 62 63 63 62 57 54 53 55 58 59 60 59 56 50 46 44 44 45 46 48 51 52 52 52 54 57 58 59 61 63 67 71 74 75 74 73 73 73 73 72 71 71 70 70 71 73 75 79 82 85 87 89 92 95 96 97 97 97 98 99 100 101 101 101 102 101 101 100 99 97 95 94 93 93 93 94
62 62 62 61 61 61 60 59 59 60 61 60 56 52 52 54 56 57 59 59 58 54 49 46 44 45 45 46 48 49 49 49 51 54 57 57 56 57 59 62 66 70 72 71 71 70 70 71 72 72 73 73 72 71 69 69 70 73 76 80 84 88 91 94 95 94 93 92 93 94 95 96 98 100 101 101 101 100 98 97 96 94 94 94 94
61 60 60 59 59 59 58 58 58 59 58 54 50 48 51 53 55 56 58 59 57 52 48 45 44 45 45 46 47 48 48 49 53 56 58 58 57 57 57 58 61 63 65 66 67 67 66 66 66 67 68 69 70 70 68 67 66 66 67 70 75 80 86 90 92 93 92 90 89 89 90 92 95 97 99 100 100 100 99 98 97 96 95 96 96
59 58 57 58 58 57 56 57 58 57 53 48 46 47 50 53 54 55 56 57 56 51 47 45 45 45 46 47 48 48 48 50 53 56 58 59 59 58 58 57 56 57 58 58 60 62 63 62 62 61 61 62 63 64 64 64 63 62 61 62 64 69 76 83 88 91 91 89 88 87 86 88 91 93 96 97 98 99 99 99 98 97 96 96 97
56 56 56 57 57 56 55 56 57 54 48 44 43 46 48 51 53 54 54 55 54 50 46 45 45 46 46 47 49 49 49 51 54 56 58 59 59 59 59 56 53 53 53 53 53 55 57 58 57 57 56 56 56 57 58 58 58 57 56 57 60 63 68 75 82 86 89 89 88 86 85 85 87 89 92 94 96 97 98 99 99 98 97 97 97
55 55 56 56 56 55 55 55 54 49 44 42 43 43 44 46 49 52 53 53 52 49 46 44 45 46 47 48 49 50 51 53 55 56 57 58 57 58 58 56 51 49 49 50 49 49 51 52 52 52 52 51 50 51 52 53 53 53 53 55 57 60 64 69 75 80 84 87 87 86 85 85 85 86 89 91 93 95 97 98 99 99 98 98 98
55 55 56 56 55 55 55 53 49 43 40 41 42 41 41 42 45 47 50 51 51 50 48 46 46 47 48 49 49 50 52 53 54 55 55 56 56 56 57 55 50 46 45 46 46 45 46 47 48 48 48 47 47 47 48 49 50 50 50 51 53 56 60 63 67 72 78 82 84 85 85 85 84 84 86 88 89 91 93 96 98 98 99 99 99
55 55 56 56 55 54 53 50 43 39 39 40 40 39 40 42 43 45 47 48 49 50 50 48 47 47 48 48 49 50 51 52 52 52 52 53 53 54 55 54 49 44 42 42 42 42 42 43 43 44 44 44 44 45 45 46 48 48 48 47 48 51 55 58 61 66 71 76 79 82 83 84 84 84 85 86 87 88 89 92 94 96 97 99 99
55 56 56 55 53 52 50 44 39 37 38 38 38 39 40 42 44 45 46 47 47 48 49 50 50 49 48 48 48 49 50 50 50 49 50 49 49 52 54 53 48 43 40 40 39 39 39 39 40 41 41 40 41 43 44 45 46 47 46 45 44 46 49 52 55 59 64 69 73 77 80 82 84 84 84 84 84 85 86 88 90 92 93 95 97
55 56 56 54 52 49 45 40 36 36 37 37 38 39 41 42 43 45 46 47 46 46 47 48 49 50 50 48 47 47 47 47 47 47 47 47 48 51 53 52 47 41 39 38 37 36 36 36 37 39 40 39 39 41 42 44 45 46 45 43 42 43 44 46 48 52 57 62 66 71 75 79 81 82 82 82 82 82 83 83 85 87 88 89 92
55 55 54 52 49 45 40 36 34 35 36 36 37 39 41 41 42 44 45 46 46 47 47 47 48 48 49 49 48 47 47 46 45 44 44 45 47 49 52 51 46 40 36 36 36 35 34 34 35 36 37 38 39 39 41 42 43 44 44 43 42 42 42 42 44 47 51 55 60 65 70 75 78 80 80 80 80 80 80 80 80 82 82 84 86
54 54 52 49 46 41 36 33 33 34 35 36 38 40 40 41 42 43 44 44 45 46 47 48 48 48 48 48 47 47 46 46 44 42 42 43 45 48 50 50 46 39 34 33 33 33 33 33 33 33 34 36 37 37 38 39 40 42 43 42 41 41 41 41 42 44 47 50 54 59 64 69 73 76 77 78 78 78 77 77 77 77 78 78 79
53 52 48 45 42 37 32 30 31 33 34 36 38 39 40 41 42 42 42 43 44 45 46 47 48 47 47 47 46 45 45 44 43 41 41 42 44 46 49 50 46 39 33 30 30 30 31 31 31 32 32 33 33 33 33 34 36 39 40 40 41 41 41 40 41 42 44 46 49 54 58 63 68 71 74 75 75 75 75 74 74 73 73 72 71
51 49 46 42 38 33 29 29 30 32 34 37 38 39 40 41 42 42 41 42 43 44 45 46 47 47 47 47 46 44 43 42 41 40 39 40 42 44 46 48 46 40 34 30 28 27 27 28 29 30 31 31 32 32 31 31 33 35 37 39 40 40 40 40 40 41 42 43 45 49 53 57 62 66 69 71 72 72 72 71 70 70 69 69 67
49 47 44 40 35 30 28 29 30 32 34 36 37 38 39 41 41 41 41 41 42 43 44 45 45 46 46 47 46 44 42 41 39 37 36 36 38 40 43 45 45 41 35 30 27 26 25 25 26 26 27 29 30 31 31 31 32 34 36 37 38 39 39 39 40 40 40 40 42 45 49 53 57 60 64 66 67 69 69 68 67 67 68 67 65
48 45 42 36 31 27 27 29 30 32 34 36 36 38 39 40 41 41 41 41 42 43 44 45 45 46 46 46 46 45 43 41 39 37 34 33 34 37 39 41 42 41 36 30 26 24 23 22 22 23 23 24 26 28 29 30 31 33 35 36 37 38 38 39 39 39 38 38 39 41 44 48 51 55 58 61 63 64 66 65 64 65 66 65 62
47 43 38 32 27 26 27 28 30 32 33 34 35 37 38 39 40 41 41 42 42 43 44 45 46 46 46 46 46 45 43 40 38 36 34 33 33 34 35 37 38 38 36 31 25 22 20 20 20 20 20 21 22 24 26 28 30 32 34 35 36 37 38 38 37 36 35 34 35 37 39 43 46 50 53 56 58 60 61 61 62 63 63 62 60
44 39 33 28 25 25 26 27 29 31 32 33 34 36 37 38 39 40 41 42 42 43 44 45 46 46 46 46 45 44 41 39 37 35 33 31 31 31 33 34 35 35 34 30 25 21 18 17 17 16 16 17 18 20 22 25 27 30 32 33 34 34 35 34 32 31 30 30 31 33 35 37 40 44 47 50 53 55 56 57 59 60 61 60 58
40 34 28 24 23 24 25 26 28 30 31 32 33 34 36 37 38 39 40 41 42 43 45 45 46 46 46 46 45 43 41 38 36 34 31 29 28 29 30 32 33 32 31 29 26 21 18 16 15 14 13 13 13 14 16 18 21 23 25 26 27 28 28 27 26 25 25 27 28 29 30 32 34 37 40 43 46 49 52 54 56 58 59 58 56
34 27 23 22 22 23 24 25 27 29 30 31 32 34 35 36 37 38 39 40 41 43 44 45 46 46 46 46 45 43 40 38 35 33 30 27 26 26 27 29 30 29 27 26 26 23 19 16 14 14 13 11 10 10 11 12 14 16 17 18 19 20 20 20 21 21 23 24 25 25 26 27 29 31 34 37 40 43 47 50 53 56 57 56 52
27 22 20 20 21 22 22 24 26 28 29 30 32 33 34 35 36 37 38 38 40 41 42 44 45 45 46 46 45 44 41 38 35 32 29 25 24 25 25 26 27 27 25 25 25 24 20 16 14 13 13 12 11 10 10 10 11 13 14 14 15 15 16 17 18 19 21 21 22 22 23 23 24 26 29 32 36 39 43 47 51 54 54 52 50
20 18 18 19 20 20 22 24 26 27 28 30 31 32 33 34 35 36 37 37 39 40 41 42 42 43 44 44 44 43 42 39 36 33 28 25 23 23 23 23 23 23 23 23 24 23 21 16 13 11 11 12 12 12 12 12 12 13 14 14 14 14 14 14 16 17 17 17 16 17 19 21 22 24 26 29 33 36 40 44 47 50 50 49 48
17 17 17 18 18 19 22 24 25 27 28 30 31 32 32 33 34 35 36 37 38 39 39 40 40 40 41 41 41 41 41 40 38 34 30 25 23 21 21 20 20 20 21 22 22 21 20 17 13 10 10 11 12 12 12 12 12 12 13 14 14 13 12 13 14 15 16 15 15 16 18 20 23 24 26 28 31 34 37 41 44 46 47 46 45
15 16 16 16 17 19 22 23 25 26 28 30 31 31 32 32 33 34 35 36 37 38 39 39 38 38 37 37 37 37 38 38 37 35 32 27 23 20 18 17 17 19 20 21 19 19 18 17 14 11 10 11 11 11 11 11 11 11 12 13 12 12 12 14 15 16 17 17 18 18 19 21 22 24 25 27 29 31 34 38 41 43 44 44 44
15 15 15 15 18 20 21 23 24 26 28 29 30 31 31 32 33 33 35 36 37 38 38 38 37 36 35 34 33 33 33 34 35 34 32 28 24 21 18 17 16 17 19 20 19 17 16 15 14 12 10 10 11 11 10 10 10 11 12 13 13 13 14 16 16 17 18 18 19 19 20 20 21 22 23 25 27 29 31 34 36 39 40 41 42
14 13 14 16 18 20 21 22 24 26 28 29 30 31 31 32 32 33 34 35 36 37 38 38 37 35 34 32 31 29 29 30 32 32 31 29 25 22 19 17 16 16 18 19 19 17 15 13 12 11 9 9 9 9 8 7 8 9 11 13 14 14 14 15 16 17 17 17 18 19 20 21 22 22 23 24 25 27 28 30 31 33 34 35 35
Wind_Direction
277 277 278 279 279 278 277 276 276 276 275 274 273 272 270 268 266 266 266 266 266 266 266 265 264 263 262 262 261 261 262 263 264 265 266 266 266 265 264 263 262 262 262 262 262 262 261 260 260 259 259 259 259 259 258 258 257 257 257 257 258 259 260 261 261 261 260 260 259 258 256 256 255 254 254 254 254 254 255 255 256 256 257 257 258
281 281 281 281 281 279 278 278 278 278 277 277 276 275 272 269 267 266 266 266 266 266 267 267 266 265 263 262 261 260 260 260 260 262 263 263 263 263 263 263 262 262 262 262 262 262 261 260 259 259 259 258 258 258 257 257 257 256 256 256 256 257 259 260 260 260 260 260 259 258 257 256 255 254 254 254 254 254 254 255 255 256 256 257 257
283 284 284 284 283 282 282 281 281 280 280 279 278 276 273 271 269 267 266 266 266 266 266 266 266 265 264 263 262 261 260 259 258 258 259 260 261 261 261 261 261 261 261 261 261 261 261 260 258 257 257 257 257 257 256 256 256 256 256 256 256 256 257 258 260 260 260 260 259 258 257 256 255 255 254 253 253 253 254 254 255 256 256 257 257
282 282 282 282 282 281 281 280 280 279 279 278 277 276 274 273 271 270 269 268 267 267 267 267 267 266 266 265 264 262 261 260 259 258 258 258 259 260 260 260 259 259 259 259 260 260 259 259 258 256 256 256 255 255 255 255 255 256 256 257 257 256 257 257 258 259 260 260 259 258 257 255 255 254 254 254 253 253 253 254 255 256 256 257 257
281 281 281 280 280 280 279 279 278 278 277 277 277 276 275 274 272 271 271 270 270 269 269 269 268 268 267 266 265 264 263 262 261 260 259 259 259 260 261 262 262 260 258 257 256 256 256 256 255 255 254 254 253 253 253 253 253 254 255 256 257 257 257 257 258 258 259 259 259 258 257 255 254 254 254 255 254 253 253 253 254 255 256 257 257
281 281 281 280 280 280 279 279 278 278 278 277 277 276 276 275 274 273 272 272 271 271 271 271 270 269 267 266 266 265 264 264 263 262 262 261 260 260 261 262 263 264 262 259 256 254 253 252 252 252 253 253 252 252 252 251 251 252 252 254 255 257 257 258 258 258 258 258 258 258 258 257 255 254 253 254 254 253 252 252 253 254 255 256 256
282 282 282 281 281 281 280 280 279 279 278 278 277 277 276 276 275 275 274 274 273 273 273 273 272 271 270 269 267 266 265 264 264 264 263 263 263 262 261 261 262 263 264 264 261 258 255 252 251 251 251 251 252 252 252 252 252 251 251 251 252 254 256 257 257 257 257 257 257 258 258 257 256 255 254 253 253 253 253 253 253 253 253 254 255
283 283 283 283 282 282 281 281 280 280 279 278 278 277 276 276 275 275 275 274 274 274 274 273 273 273 273 272 270 269 268 266 266 265 264 264 264 263 263 262 262 262 263 264 263 262 259 257 255 253 252 251 251 251 252 252 252 252 252 252 252 252 253 255 256 257 256 256 256 256 256 256 256 255 255 254 254 254 255 255 253 252 252 252 253
284 283 283 283 283 282 282 281 281 280 280 279 278 277 277 276 276 275 275 275 274 274 274 274 273 273 273 272 272 271 270 269 268 267 266 265 265 264 263 263 263 262 263 264 264 264 262 261 259 258 257 255 254 253 253 253 253 251 251 253 253 253 252 253 254 256 257 257 257 256 256 255 255 255 255 255 255 254 253 251 250 249 249 250 251
285 284 284 284 283 283 282 281 281 280 280 279 279 278 278 277 276 276 276 275 275 274 274 274 273 273 272 271 271 271 270 269 269 268 267 266 266 265 264 264 263 262 262 263 264 265 265 264 262 262 261 260 259 258 258 258 257 255 253 254 255 256 255 254 254 255 256 258 259 258 257 256 256 256 255 255 253 251 249 248 248 247 247 248 249
285 285 284 284 283 283 282 282 281 281 280 280 280 279 279 278 278 277 277 276 276 275 274 274 274 273 273 272 271 271 270 269 269 268 267 267 266 265 265 264 264 263 262 262 262 263 265 265 265 264 263 262 262 261 262 262 261 260 258 257 257 258 259 259 258 257 256 257 258 259 259 258 257 257 256 254 252 250 249 248 246 245 246 247 249
284 284 284 284 284 284 283 283 282 282 282 281 281 281 281 280 280 279 278 278 277 276 276 275 275 274 274 274 273 272 272 271 270 269 268 267 267 266 265 264 264 263 263 262 261 262 263 264 264 264 264 264 263 263 263 264 264 263 262 261 260 260 260 261 261 261 259 258 257 258 259 259 258 258 257 256 254 251 250 248 246 245 245 247 248
286 286 286 286 286 286 285 285 285 284 284 284 283 283 282 282 281 281 280 280 279 278 278 277 277 276 276 276 275 274 274 273 272 272 271 269 268 267 266 265 264 263 263 263 262 261 261 262 263 263 264 264 264 264 264 264 264 264 264 263 262 261 261 261 262 263 262 261 259 258 259 259 258 257 256 256 255 253 251 250 248 246 245 245 247
287 287 287 287 287 287 287 287 286 286 286 285 285 285 284 284 283 283 282 282 281 280 280 280 279 279 278 277 276 275 274 274 273 273 272 271 270 269 268 266 265 264 263 263 262 262 261 260 261 262 262 263 263 264 264 264 264 264 264 263 263 262 262 262 262 263 263 263 261 260 260 259 259 258 255 254 254 254 253 251 250 248 245 243 244
288 288 288 288 288 288 288 288 288 287 287 287 287 286 286 286 286 285 284 284 284 284 283 283 282 281 280 279 278 277 275 275 274 273 272 272 271 270 269 268 266 265 263 263 262 262 262 261 260 260 260 261 262 263 263 263 263 263 263 262 262 263 262 262 263 263 263 263 262 261 261 260 259 258 256 253 252 253 253 252 250 249 245 242 241
289 290 290 290 289 289 289 289 288 288 288 287 288 287 287 287 287 287 286 286 287 287 286 285 284 283 282 281 280 279 277 276 275 274 273 272 272 271 270 269 268 266 264 263 262 262 261 261 261 260 259 260 260 261 262 262 262 263 262 262 262 261 261 262 262 262 262 262 262 261 260 260 258 258 257 255 252 251 252 251 250 249 247 245 244
291 291 291 290 290 290 289 289 289 288 288 288 288 288 288 288 288 288 288 289 289 288 287 287 286 285 284 283 282 281 279 278 276 275 274 273 272 271 271 270 269 268 266 264 263 262 261 261 260 260 259 259 259 260 261 261 261 261 262 262 262 261 261 261 261 261 261 260 260 260 259 259 258 257 256 256 254 252 251 251 251 251 250 248 248
291 291 290 290 290 289 289 289 289 289 289 289 289 289 289 289 289 289 290 290 290 289 288 288 287 286 285 284 283 282 280 278 277 275 274 273 272 271 271 270 270 269 268 266 265 263 262 261 261 260 260 259 258 259 260 261 261 261 260 260 260 260 260 260 260 260 259 259 258 258 258 258 257 256 255 255 254 253 252 251 252 252 251 250 249
290 290 290 290 290 290 290 290 290 290 290 290 290 291 290 291 291 292 292 292 291 291 290 289 288 288 287 286 284 283 281 279 277 276 274 273 272 271 271 270 270 270 269 268 266 265 264 263 262 261 260 260 259 259 259 259 260 260 260 259 259 259 259 259 258 258 258 257 257 256 256 255 255 254 253 253 252 252 252 251 251 252 252 252 250
290 290 290 290 290 290 290 290 290 291 291 292 292 292 293 294 294 295 295 294 294 293 293 292 291 291 290 288 287 286 284 283 281 279 278 276 275 274 272 271 270 269 268 267 267 266 265 264 263 262 261 260 259 258 258 258 258 258 258 258 258 257 257 257 256 255 255 255 255 255 254 254 253 253 252 251 251 250 250 250 251 251 252 252 251
291 290 290 290 290 290 290 291 292 293 293 294 294 295 296 297 298 297 297 297 297 296 296 295 295 294 293 291 291 290 289 287 286 284 283 281 279 278 276 274 272 270 268 267 267 266 265 265 263 262 262 260 259 257 257 256 257 257 257 257 257 256 256 255 254 253 252 252 252 253 252 252 252 252 251 250 250 249 248 248 249 250 251 251 251
291 291 290 290 291 291 292 293 294 295 296 296 297 298 299 299 299 299 300 300 300 299 299 298 297 296 295 294 293 292 291 290 289 287 285 284 282 280 279 277 275 273 271 269 267 266 265 264 263 262 261 260 259 258 256 255 255 255 255 255 256 255 254 253 252 252 251 250 250 250 250 250 250 251 250 249 249 248 247 245 246 247 248 249 250
292 291 291 292 292 293 294 295 296 297 298 298 299 300 300 300 301 302 303 303 302 301 301 300 298 297 296 296 295 295 294 293 292 289 287 285 283 282 280 278 276 275 273 271 269 267 265 264 262 262 261 260 259 258 257 256 254 254 253 254 254 254 253 252 251 250 249 249 248 248 248 249 249 249 249 249 248 247 246 244 243 244 245 246 247
292 292 292 293 294 294 295 297 298 299 299 299 300 301 301 301 303 304 305 305 304 304 304 302 299 297 297 298 298 298 297 296 294 292 289 287 285 282 280 278 276 274 273 271 270 268 266 265 263 262 261 260 260 259 257 256 255 254 253 252 252 252 252 251 250 249 248 248 247 247 246 247 247 248 248 248 247 246 244 242 241 241 242 243 244
293 293 293 294 295 296 297 298 299 299 299 299 300 301 301 302 304 305 306 307 307 307 305 301 298 298 298 299 300 301 300 298 297 296 294 291 288 285 283 280 278 275 273 271 269 267 266 265 263 262 261 261 260 259 258 256 255 254 252 251 250 250 251 251 250 249 248 248 247 246 245 245 245 246 245 245 244 243 242 241 240 239 240 241 243
293 294 294 295 296 296 297 299 299 299 299 300 301 301 301 303 305 307 309 310 310 308 304 299 296 296 298 300 303 304 303 302 303 304 303 299 295 291 288 285 282 278 275 272 269 267 266 265 263 262 261 260 260 259 258 257 256 254 252 251 250 249 250 250 251 250 249 248 247 246 245 244 243 243 242 241 241 241 241 241 239 239 239 240 241
294 294 295 296 296 297 298 299 299 299 299 300 300 300 302 304 306 308 311 312 312 308 303 298 296 296 299 302 306 307 307 307 308 309 309 306 300 296 293 290 286 282 279 276 272 268 266 265 264 263 261 260 259 259 258 257 256 255 253 251 249 249 249 250 250 250 250 248 247 246 244 243 241 240 239 239 239 239 240 239 239 238 238 238 240
295 295 295 296 297 298 299 300 299 299 299 299 298 300 302 304 307 309 311 313 313 308 301 296 296 297 300 303 307 309 310 309 309 309 310 310 306 302 299 295 288 283 280 278 275 271 267 265 265 265 264 261 259 258 257 256 255 254 254 252 250 249 248 248 249 249 249 248 247 245 243 242 240 239 238 237 237 237 238 238 238 238 237 237 237
295 295 296 297 297 299 300 300 300 299 298 297 298 301 303 306 308 310 311 313 314 311 302 296 296 297 300 303 306 308 310 309 308 309 311 312 311 309 307 302 294 287 283 279 275 272 268 265 264 265 266 263 259 256 255 254 254 253 254 253 251 249 247 247 247 247 247 247 246 245 243 242 241 239 238 236 235 235 236 236 237 237 237 237 237
294 295 296 297 298 300 300 300 300 299 296 295 298 301 305 307 309 311 311 312 316 316 311 303 299 299 300 303 305 308 309 309 308 309 312 314 314 313 312 308 301 293 288 283 277 272 268 265 264 265 265 263 259 255 254 252 251 252 253 253 251 249 247 245 245 245 245 245 244 244 243 241 240 239 238 237 235 234 234 235 236 236 236 236 236
294 295 296 297 299 300 301 300 299 296 294 295 299 303 306 309 310 311 312 313 315 319 319 315 310 306 304 304 305 307 309 309 309 310 313 316 315 315 315 312 305 297 291 286 280 274 269 265 263 264 264 261 257 254 253 250 249 250 252 252 251 249 247 246 245 244 244 243 243 242 241 241 240 239 238 238 236 233 233 233 234 235 236 236 236
294 295 297 298 300 301 301 299 297 293 292 296 301 304 308 309 309 311 314 315 316 318 321 322 320 316 312 308 307 307 308 309 309 310 314 317 317 316 317 315 308 299 291 286 282 277 271 266 263 263 263 259 254 253 251 249 248 249 251 252 252 251 250 247 245 244 243 242 241 240 240 239 239 238 238 238 237 235 233 232 233 234 235 236 236
295 296 297 299 300 301 300 298 295 291 292 297 302 306 308 308 308 310 312 314 317 319 320 321 322 321 319 314 310 308 308 309 309 311 314 318 318 318 319 317 311 301 292 286 283 279 274 268 263 262 262 258 253 251 249 248 248 249 251 252 252 252 251 249 247 245 243 241 240 239 238 237 237 237 237 237 237 236 234 233 233 234 234 235 236
295 296 297 299 301 300 299 296 292 290 294 298 303 306 308 308 309 310 310 312 315 318 319 319 319 320 321 319 315 310 308 309 310 312 315 318 320 321 322 320 314 303 293 287 285 281 277 271 265 262 261 258 253 249 247 247 247 248 250 252 253 253 253 252 250 247 244 242 240 238 237 236 235 235 235 236 236 236 235 234 233 234 235 236 236
294 296 298 300 301 299 297 294 290 291 295 300 304 306 307 308 310 311 311 312 314 316 317 317 317 317 318 319 317 313 310 310 311 313 315 318 320 322 324 323 317 306 296 289 286 284 280 275 269 264 260 257 253 250 247 246 247 247 249 251 252 253 254 254 253 250 247 243 241 238 236 235 234 234 234 234 235 236 236 235 234 234 235 236 237
295 297 299 301 300 299 296 292 290 292 297 301 304 305 307 309 312 313 313 314 316 317 317 317 317 316 316 317 317 315 312 311 312 313 315 317 319 322 325 326 321 311 299 291 286 284 282 277 271 266 262 257 254 251 248 247 247 247 248 249 250 252 254 254 254 252 249 245 241 238 236 234 233 233 233 233 234 235 235 235 235 235 236 236 237
296 298 300 300 299 296 293 289 290 294 298 301 303 305 307 311 314 315 315 316 317 318 319 319 318 318 317 317 317 317 315 313 313 313 314 316 319 321 325 327 325 316 305 296 288 283 281 278 272 267 263 258 253 250 247 247 247 247 248 249 250 252 254 255 256 255 252 248 243 239 236 234 232 232 231 232 232 233 234 234 235 235 235 236 237
297 299 300 299 297 292 288 287 290 294 298 301 303 306 309 313 315 316 316 317 318 319 319 319 320 319 319 318 317 317 316 314 313 313 313 316 319 321 323 326 327 322 312 304 296 288 283 279 274 268 263 257 253 249 247 247 247 248 249 250 251 252 254 255 256 256 255 251 246 242 238 235 233 231 231 231 231 232 233 233 234 234 233 233 235
298 300 300 298 294 288 283 285 290 294 297 300 304 308 312 314 316 316 317 319 319 319 320 320 321 321 321 320 318 317 316 315 313 311 310 313 318 320 321 325 328 326 317 309 305 298 290 283 277 271 265 260 255 251 249 249 248 248 248 248 249 252 253 254 255 257 257 254 248 243 239 236 234 232 230 230 230 230 231 232 232 232 230 231 233
297 299 300 297 289 283 282 286 290 294 297 301 306 310 314 316 316 317 318 319 320 321 321 322 322 322 322 322 320 318 316 315 313 311 309 311 316 320 321 324 328 329 323 314 310 307 301 292 284 276 269 264 259 255 251 249 248 248 248 248 249 251 252 253 254 256 257 254 249 243 239 236 233 231 230 229 228 229 230 230 230 229 228 230 233
296 298 298 292 283 278 281 286 290 294 298 303 308 312 315 316 317 318 319 320 321 323 323 324 325 325 325 324 323 320 317 316 315 313 311 311 315 320 323 324 328 330 328 321 315 313 310 303 293 283 273 266 261 257 253 251 249 249 249 249 249 250 251 252 254 256 256 254 248 242 238 235 233 231 229 228 227 228 229 230 230 229 228 229 233
295 297 294 285 275 275 281 287 291 296 300 305 310 314 315 316 317 318 320 321 322 324 325 326 327 328 328 327 326 323 320 318 317 316 313 312 315 321 324 325 326 329 329 325 319 317 317 314 303 290 278 269 263 259 256 254 252 251 250 250 250 251 252 252 253 253 252 250 245 240 236 234 232 230 229 227 227 228 228 229 229 228 228 229 232
293 293 286 275 270 275 282 287 292 297 301 307 312 314 315 316 317 319 320 322 324 325 327 328 329 330 330 330 329 327 324 321 320 318 316 315 317 321 324 325 325 327 329 327 323 320 320 320 314 301 287 275 267 263 260 258 255 254 253 252 251 250 250 249 249 248 245 242 238 234 232 231 230 229 229 228 227 228 228 228 227 227 227 229 232
290 286 276 266 267 275 282 287 292 298 303 308 312 314 315 316 317 319 321 323 325 327 328 329 330 331 332 333 332 331 329 326 324 321 318 318 320 321 322 324 326 327 328 328 326 323 319 318 316 310 298 285 276 269 265 261 257 254 252 250 248 247 246 245 242 239 235 232 230 228 228 227 227 227 228 228 228 228 227 227 225 225 226 230 234
283 275 263 261 268 276 282 288 294 300 306 310 313 314 315 316 317 319 321 324 326 328 329 330 331 332 333 334 334 334 333 331 328 324 320 320 322 321 320 324 328 331 332 332 331 329 324 318 314 311 304 296 289 280 271 265 260 255 252 249 247 245 244 241 236 230 226 223 222 221 222 224 224 225 226 227 228 228 227 225 223 224 226 231 235
271 258 252 260 270 277 284 291 297 302 307 311 313 314 315 316 317 319 322 324 326 328 329 331 332 333 333 334 335 336 336 335 333 328 323 321 322 322 322 326 331 334 336 337 336 334 331 324 317 311 304 296 289 280 270 262 258 254 252 251 248 243 239 235 230 224 219 217 217 217 217 218 220 223 226 227 228 228 226 224 223 224 228 232 236
252 243 249 262 271 279 288 294 299 304 308 311 312 313 315 316 318 320 322 325 327 328 330 332 333 333 334 334 335 336 338 338 338 334 327 323 323 324 325 329 333 336 337 337 336 336 335 330 324 318 310 298 287 277 266 257 252 250 248 245 240 236 231 226 221 215 210 208 212 216 216 215 215 218 222 224 226 226 225 223 224 225 229 233 236
234 240 253 264 273 283 291 296 301 306 309 311 313 314 315 316 318 320 322 325 327 329 331 333 333 334 333 333 334 336 338 340 341 339 334 328 327 328 329 331 335 338 338 337 337 338 338 333 327 326 325 315 300 285 269 258 253 250 244 236 231 228 223 216 210 205 201 199 204 211 215 215 216 218 220 222 224 224 224 224 225 227 230 234 237
230 245 256 267 279 288 293 298 303 308 310 311 313 315 316 317 318 321 323 325 327 329 331 333 334 334 333 333 334 336 339 341 343 343 340 335 332 333 333 332 332 334 337 339 339 340 341 339 335 330 330 327 319 303 282 263 252 243 234 228 223 218 214 209 204 202 200 199 201 205 210 212 215 217 219 221 222 223 224 225 227 229 232 235 238
237 250 262 275 284 290 294 300 306 308 310 312 313 314 316 318 320 321 323 325 328 329 331 333 333 333 333 332 332 335 339 342 344 345 344 341 337 336 336 333 328 329 335 341 342 340 339 342 342 338 333 332 330 323 303 277 257 243 230 219 211 208 209 208 206 205 206 205 203 204 206 209 211 213 215 218 219 221 223 225 227 230 232 235 237
244 256 270 281 287 291 297 303 307 309 310 312 314 316 317 319 320 322 324 326 327 329 330 332 332 332 332 332 331 333 338 343 346 348 349 346 342 339 339 337 332 328 331 340 346 348 344 339 339 341 340 338 338 335 325 301 274 253 232 214 204 204 207 208 206 206 206 207 207 206 206 207 209 210 212 214 216 218 220 223 225 228 230 233 234
Height
5632 5631 5629 5628 5627 5625 5623 5622 5620 5619 5618 5617 5617 5616 5616 5615 5614 5613 5612 5611 5610 5610 5609 5608 5607 5607 5606 5605 5605 5605 5606 5606 5607 5608 5608 5608 5607 5607 5608 5608 5609 5610 5610 5610 5610 5610 5611 5613 5613 5613 5612 5613 5615 5615 5616 5617 5618 5619 5621 5621 5623 5625 5625 5625 5630 5636 5639 5639 5641 5642 5643 5645 5647 5650 5651 5651 5653 5654 5654 5654 5655 5658 5660 5662 5665
5619 5618 5617 5616 5615 5613 5612 5610 5609 5607 5606 5605 5604 5603 5602 5602 5601 5601 5600 5599 5598 5598 5597 5597 5596 5595 5595 5594 5594 5594 5593 5594 5594 5595 5596 5597 5597 5596 5596 5596 5597 5598 5599 5599 5599 5598 5600 5602 5603 5602 5601 5602 5604 5604 5605 5606 5606 5608 5610 5610 5612 5614 5614 5614 5618 5623 5626 5629 5630 5632 5633 5635 5638 5640 5641 5642 5643 5644 5645 5645 5646 5648 5650 5653 5655
5607 5605 5604 5603 5602 5601 5599 5598 5596 5595 5594 5593 5592 5591 5590 5589 5588 5588 5587 5586 5586 5585 5584 5584 5584 5584 5583 5583 5582 5581 5581 5581 5582 5582 5582 5583 5584 5584 5584 5584 5584 5585 5586 5587 5587 5586 5587 5590 5591 5591 5590 5591 5593 5593 5593 5594 5595 5596 5599 5599 5601 5603 5603 5602 5605 5610 5615 5617 5619 5621 5623 5625 5628 5630 5630 5632 5632 5633 5635 5636 5637 5639 5641 5643 5646
5595 5594 5592 5591 5590 5589 5587 5586 5584 5583 5581 5580 5579 5578 5578 5577 5576 5575 5575 5574 5573 5572 5572 5571 5571 5571 5571 5570 5570 5569 5568 5569 5569 5569 5569 5568 5569 5569 5570 5570 5571 5572 5572 5573 5574 5574 5575 5577 5578 5578 5578 5580 5582 5582 5581 5583 5583 5584 5587 5589 5589 5591 5592 5591 5593 5598 5602 5605 5608 5611 5613 5614 5617 5619 5620 5621 5623 5624 5625 5626 5628 5630 5632 5634 5637
5584 5582 5581 5579 5577 5576 5574 5573 5571 5569 5567 5566 5564 5563 5563 5563 5562 5561 5560 5560 5559 5558 5558 5558 5557 5557 5557 5556 5556 5555 5555 5555 5555 5556 5555 5554 5554 5553 5554 5554 5556 5557 5558 5559 5560 5560 5562 5564 5565 5565 5566 5568 5570 5570 5570 5571 5571 5572 5576 5577 5578 5579 5579 5579 5582 5586 5589 5594 5598 5600 5601 5604 5607 5609 5610 5611 5613 5614 5615 5617 5619 5621 5622 5625 5628
5571 5569 5568 5566 5564 5562 5560 5558 5556 5555 5553 5551 5550 5548 5547 5546 5546 5545 5544 5543 5543 5542 5542 5542 5542 5543 5543 5543 5542 5541 5541 5541 5541 5541 5541 5540 5539 5539 5539 5538 5539 5541 5543 5544 5545 5545 5547 5549 5551 5552 5553 5555 5557 5558 5558 5559 5560 5561 5564 5565 5566 5566 5567 5569 5571 5573 5576 5582 5586 5588 5591 5594 5596 5598 5600 5601 5601 5603 5605 5607 5609 5611 5612 5615 5618
5557 5555 5553 5551 5549 5547 5545 5543 5541 5539 5538 5536 5534 5533 5531 5530 5530 5528 5527 5526 5526 5525 5525 5525 5525 5525 5526 5526 5527 5527 5527 5528 5528 5527 5526 5525 5524 5524 5525 5524 5524 5525 5526 5529 5530 5531 5532 5534 5537 5538 5540 5541 5544 5545 5546 5547 5548 5550 5552 5553 5553 5553 5556 5558 5560 5561 5564 5569 5573 5577 5580 5583 5585 5587 5589 5589 5590 5592 5596 5598 5600 5601 5603 5605 5607
5542 5540 5538 5536 5533 5531 5529 5527 5525 5523 5521 5520 5518 5517 5515 5514 5513 5512 5511 5510 5509 5509 5508 5508 5509 5508 5508 5508 5509 5509 5510 5512 5513 5512 5510 5509 5508 5508 5509 5509 5509 5509 5510 5512 5514 5516 5518 5520 5521 5524 5526 5527 5530 5532 5533 5534 5536 5538 5541 5540 5540 5541 5544 5547 5548 5549 5553 5557 5561 5565 5568 5570 5573 5576 5578 5579 5580 5585 5589 5589 5590 5591 5593 5595 5597
5528 5525 5523 5520 5518 5516 5514 5512 5510 5508 5505 5504 5502 5501 5500 5499 5497 5496 5494 5493 5492 5492 5492 5492 5492 5492 5491 5491 5491 5492 5492 5494 5496 5495 5493 5492 5492 5491 5492 5492 5493 5493 5494 5495 5496 5499 5503 5505 5507 5509 5510 5512 5515 5517 5519 5521 5522 5526 5529 5528 5527 5529 5532 5534 5536 5538 5541 5545 5548 5552 5555 5558 5562 5565 5567 5570 5574 5577 5577 5576 5577 5579 5581 5582 5585
5514 5511 5508 5506 5503 5501 5499 5498 5496 5494 5491 5489 5487 5486 5484 5483 5482 5481 5479 5478 5477 5476 5475 5475 5474 5473 5474 5474 5475 5475 5476 5477 5479 5478 5476 5474 5473 5472 5473 5474 5475 5476 5477 5479 5480 5482 5485 5487 5491 5494 5495 5497 5499 5501 5503 5506 5508 5512 5514 5514 5514 5517 5520 5522 5525 5527 5530 5532 5536 5540 5543 5548 5553 5555 5557 5561 5563 5562 5562 5563 5566 5568 5568 5570 5574
5501 5498 5495 5492 5490 5488 5486 5485 5484 5482 5479 5476 5474 5472 5470 5469 5468 5466 5465 5464 5462 5461 5460 5459 5458 5456 5455 5455 5457 5458 5459 5461 5462 5461 5459 5457 5455 5454 5453 5454 5456 5458 5460 5462 5465 5467 5468 5469 5473 5476 5479 5482 5484 5485 5487 5490 5492 5495 5498 5499 5500 5503 5507 5510 5513 5516 5517 5520 5524 5527 5530 5538 5544 5545 5547 5549 5549 5549 5552 5553 5553 5554 5556 5560 5564
5490 5487 5484 5481 5479 5476 5474 5473 5472 5470 5467 5465 5463 5461 5459 5457 5455 5453 5451 5449 5448 5447 5446 5444 5443 5442 5440 5438 5439 5439 5440 5443 5443 5441 5439 5438 5436 5434 5433 5435 5437 5439 5442 5445 5448 5451 5452 5453 5455 5458 5461 5465 5468 5469 5471 5474 5476 5478 5480 5483 5485 5490 5494 5496 5500 5503 5504 5507 5512 5514 5520 5529 5533 5533 5535 5537 5538 5539 5540 5540 5541 5544 5547 5550 5554
5479 5477 5474 5471 5468 5466 5463 5462 5460 5458 5455 5453 5451 5449 5447 5445 5442 5440 5437 5436 5434 5433 5432 5430 5429 5429 5426 5424 5423 5423 5424 5425 5424 5420 5417 5416 5415 5413 5412 5414 5417 5420 5424 5427 5431 5434 5436 5437 5439 5441 5445 5448 5449 5452 5455 5458 5460 5460 5462 5466 5470 5475 5480 5482 5486 5489 5491 5494 5498 5503 5511 5516 5518 5520 5524 5525 5525 5526 5527 5530 5534 5535 5537 5541 5545
5469 5467 5464 5461 5458 5456 5453 5451 5449 5447 5444 5441 5439 5437 5434 5432 5430 5426 5423 5422 5421 5419 5418 5417 5416 5415 5412 5409 5407 5407 5409 5409 5406 5401 5397 5395 5393 5391 5390 5392 5396 5401 5405 5408 5411 5415 5419 5421 5421 5424 5429 5431 5432 5435 5438 5441 5443 5444 5446 5449 5454 5460 5464 5467 5471 5475 5477 5479 5484 5492 5500 5501 5503 5507 5511 5511 5513 5516 5518 5522 5524 5524 5527 5532 5534
5460 5457 5455 5452 5449 5446 5444 5441 5439 5436 5433 5430 5428 5425 5422 5419 5417 5413 5410 5409 5407 5406 5404 5403 5401 5400 5398 5394 5391 5391 5394 5393 5389 5384 5380 5377 5374 5371 5369 5371 5375 5380 5385 5390 5392 5395 5398 5401 5403 5406 5411 5414 5416 5418 5420 5422 5424 5425 5429 5433 5439 5444 5448 5452 5457 5460 5462 5464 5469 5478 5485 5486 5488 5493 5496 5500 5503 5506 5508 5509 5509 5511 5514 5517 5518
5451 5449 5447 5444 5440 5437 5434 5432 5429 5426 5423 5420 5418 5415 5411 5408 5405 5400 5397 5397 5395 5393 5390 5388 5386 5385 5383 5379 5375 5374 5378 5378 5372 5367 5364 5362 5358 5354 5353 5353 5355 5359 5364 5370 5373 5375 5378 5380 5382 5387 5392 5397 5400 5402 5404 5404 5404 5405 5410 5416 5422 5427 5431 5438 5442 5443 5445 5448 5454 5463 5469 5472 5474 5478 5483 5488 5492 5495 5495 5494 5495 5498 5501 5504 5507
5442 5440 5437 5434 5431 5428 5425 5422 5419 5416 5413 5410 5407 5404 5401 5397 5394 5389 5386 5385 5383 5380 5376 5374 5372 5369 5367 5365 5360 5358 5362 5363 5356 5350 5348 5346 5342 5339 5338 5337 5338 5341 5345 5349 5352 5353 5357 5360 5363 5367 5372 5379 5384 5386 5386 5385 5385 5387 5391 5397 5402 5408 5415 5423 5427 5426 5428 5432 5438 5447 5453 5457 5460 5463 5468 5473 5480 5482 5480 5481 5487 5491 5491 5494 5498
5434 5432 5428 5425 5421 5418 5415 5412 5409 5406 5403 5400 5397 5394 5390 5386 5383 5379 5375 5373 5371 5367 5363 5360 5360 5356 5352 5349 5346 5342 5344 5346 5340 5333 5332 5331 5326 5323 5322 5322 5323 5325 5328 5331 5332 5333 5336 5342 5346 5349 5353 5360 5366 5368 5367 5365 5364 5368 5374 5379 5382 5387 5397 5407 5409 5409 5411 5416 5422 5431 5438 5441 5444 5448 5452 5458 5465 5468 5468 5474 5481 5481 5479 5483 5489
5426 5423 5420 5416 5412 5409 5405 5402 5398 5395 5393 5390 5386 5383 5379 5375 5372 5368 5364 5360 5357 5354 5350 5346 5346 5345 5339 5334 5331 5327 5326 5328 5324 5316 5315 5315 5311 5307 5307 5306 5308 5311 5311 5312 5314 5317 5320 5325 5329 5330 5333 5338 5343 5345 5347 5346 5345 5348 5354 5359 5361 5369 5382 5391 5391 5391 5395 5400 5407 5414 5420 5424 5427 5431 5436 5442 5448 5453 5459 5466 5469 5467 5468 5476 5479
5417 5414 5411 5407 5403 5400 5396 5392 5389 5385 5382 5379 5376 5372 5368 5364 5361 5357 5353 5349 5345 5342 5338 5334 5333 5332 5327 5321 5318 5314 5310 5311 5309 5303 5300 5300 5297 5293 5292 5292 5293 5294 5294 5295 5298 5302 5306 5308 5311 5312 5313 5316 5320 5323 5326 5326 5327 5330 5334 5336 5341 5353 5367 5373 5371 5373 5379 5384 5390 5395 5400 5406 5411 5415 5421 5426 5432 5440 5449 5454 5456 5456 5461 5466 5466
5409 5405 5402 5398 5394 5391 5387 5383 5380 5376 5372 5368 5365 5362 5357 5353 5350 5346 5342 5338 5334 5330 5327 5323 5321 5320 5316 5310 5307 5304 5299 5299 5297 5293 5289 5288 5284 5280 5279 5279 5277 5276 5278 5280 5282 5286 5290 5291 5293 5295 5295 5295 5299 5303 5306 5308 5309 5311 5313 5317 5324 5337 5347 5349 5349 5354 5361 5366 5372 5376 5382 5389 5394 5399 5406 5412 5418 5426 5435 5440 5443 5446 5450 5453 5454
5400 5396 5393 5389 5386 5382 5378 5374 5371 5367 5363 5358 5355 5352 5348 5343 5339 5335 5331 5327 5324 5321 5318 5314 5312 5310 5306 5301 5298 5295 5291 5289 5287 5284 5280 5277 5274 5270 5267 5266 5263 5261 5263 5267 5268 5269 5272 5273 5275 5277 5277 5277 5280 5283 5287 5291 5293 5294 5296 5301 5308 5316 5323 5326 5328 5333 5339 5345 5352 5358 5365 5372 5378 5385 5392 5399 5405 5412 5419 5425 5430 5433 5437 5441 5443
5391 5388 5384 5381 5377 5374 5370 5366 5362 5358 5353 5349 5345 5342 5338 5334 5329 5325 5321 5317 5314 5312 5309 5305 5302 5301 5298 5294 5290 5287 5284 5281 5278 5274 5271 5267 5263 5259 5256 5254 5251 5248 5249 5254 5255 5254 5256 5257 5259 5260 5260 5260 5262 5266 5269 5274 5276 5279 5283 5287 5290 5295 5300 5304 5306 5310 5316 5324 5332 5340 5348 5356 5363 5371 5379 5386 5393 5398 5402 5409 5415 5418 5422 5427 5431
5383 5379 5376 5373 5369 5365 5362 5358 5354 5349 5345 5341 5337 5333 5329 5325 5322 5318 5313 5308 5305 5303 5300 5297 5294 5293 5291 5288 5284 5280 5276 5273 5268 5264 5260 5256 5252 5248 5245 5242 5239 5236 5236 5240 5241 5240 5242 5244 5245 5245 5245 5245 5246 5249 5252 5255 5259 5263 5268 5272 5274 5277 5279 5282 5286 5291 5297 5304 5313 5322 5333 5342 5349 5357 5366 5372 5378 5381 5385 5390 5396 5401 5406 5412 5417
5374 5371 5367 5364 5361 5357 5354 5350 5346 5342 5337 5332 5329 5325 5321 5318 5314 5310 5305 5300 5296 5294 5291 5289 5287 5285 5283 5281 5278 5273 5268 5264 5260 5255 5250 5245 5241 5236 5232 5229 5226 5223 5223 5226 5227 5226 5227 5230 5232 5232 5231 5232 5233 5233 5235 5239 5243 5247 5252 5256 5259 5260 5260 5263 5269 5274 5279 5287 5296 5307 5318 5327 5335 5343 5350 5354 5357 5361 5366 5372 5378 5384 5391 5397 5402
5366 5362 5359 5356 5353 5349 5346 5343 5339 5334 5330 5325 5321 5317 5314 5310 5307 5303 5297 5292 5288 5285 5283 5281 5279 5277 5276 5273 5270 5265 5260 5256 5251 5246 5241 5236 5231 5226 5222 5217 5213 5209 5208 5210 5212 5212 5213 5215 5217 5218 5218 5218 5219 5220 5222 5225 5228 5231 5235 5240 5243 5245 5246 5249 5254 5259 5265 5274 5282 5291 5301 5311 5319 5324 5329 5332 5336 5343 5350 5356 5362 5369 5376 5382 5387
5357 5354 5351 5348 5345 5341 5338 5335 5331 5327 5323 5318 5314 5311 5307 5303 5300 5295 5290 5284 5281 5277 5275 5273 5271 5269 5268 5265 5262 5257 5253 5248 5243 5238 5233 5228 5223 5219 5213 5208 5202 5197 5195 5195 5196 5198 5199 5200 5201 5202 5203 5205 5207 5208 5211 5213 5215 5217 5220 5225 5228 5231 5234 5236 5240 5245 5252 5260 5267 5275 5284 5292 5298 5302 5308 5313 5320 5328 5335 5340 5346 5354 5361 5367 5372
5348 5346 5342 5340 5336 5333 5330 5327 5323 5319 5315 5311 5308 5305 5301 5297 5293 5288 5283 5278 5274 5271 5268 5266 5264 5261 5259 5257 5253 5250 5245 5240 5235 5230 5225 5219 5214 5209 5204 5198 5192 5187 5185 5182 5181 5182 5185 5187 5187 5188 5190 5191 5194 5197 5199 5201 5203 5205 5208 5211 5214 5217 5220 5223 5226 5231 5237 5245 5252 5259 5266 5272 5277 5284 5291 5297 5304 5312 5319 5324 5331 5338 5345 5350 5356
5340 5337 5335 5332 5329 5326 5322 5318 5314 5311 5308 5305 5302 5299 5295 5291 5287 5282 5277 5272 5267 5263 5260 5258 5256 5254 5251 5248 5245 5242 5239 5233 5227 5222 5216 5210 5204 5198 5192 5187 5181 5177 5174 5172 5170 5170 5172 5174 5176 5177 5178 5179 5181 5184 5186 5189 5191 5194 5197 5199 5202 5204 5206 5209 5212 5217 5223 5230 5237 5244 5251 5257 5263 5270 5276 5282 5289 5296 5302 5308 5315 5322 5329 5334 5340
5333 5330 5327 5324 5321 5318 5315 5311 5307 5303 5301 5299 5297 5294 5290 5285 5280 5275 5272 5267 5261 5256 5252 5250 5247 5245 5243 5240 5236 5233 5230 5225 5220 5214 5208 5202 5195 5189 5183 5177 5171 5167 5163 5161 5160 5160 5161 5163 5165 5166 5167 5168 5170 5172 5175 5178 5180 5183 5186 5188 5189 5191 5193 5195 5198 5203 5209 5215 5222 5229 5236 5242 5248 5255 5260 5267 5274 5281 5287 5293 5299 5306 5313 5319 5325
5326 5323 5320 5317 5314 5311 5307 5304 5300 5297 5295 5293 5291 5289 5286 5281 5276 5270 5265 5261 5256 5250 5246 5242 5239 5236 5234 5231 5228 5224 5220 5216 5211 5206 5200 5194 5188 5181 5175 5169 5163 5159 5155 5152 5151 5152 5152 5153 5155 5156 5156 5157 5160 5162 5165 5167 5170 5172 5174 5176 5177 5179 5181 5184 5187 5191 5195 5201 5208 5216 5222 5228 5235 5241 5247 5253 5260 5266 5272 5278 5284 5290 5298 5304 5310
5318 5315 5312 5309 5307 5303 5299 5296 5293 5291 5289 5287 5285 5282 5279 5276 5273 5267 5261 5255 5250 5245 5240 5236 5233 5229 5225 5222 5219 5216 5212 5207 5203 5198 5193 5187 5180 5174 5168 5162 5156 5151 5148 5145 5144 5144 5144 5144 5146 5146 5146 5148 5150 5153 5155 5158 5160 5161 5163 5165 5167 5169 5171 5174 5177 5179 5182 5187 5194 5201 5208 5215 5222 5228 5234 5239 5245 5251 5258 5264 5270 5277 5284 5289 5295
5310 5307 5304 5302 5299 5296 5292 5289 5287 5285 5283 5281 5279 5276 5273 5270 5267 5263 5258 5252 5245 5239 5234 5230 5227 5224 5220 5215 5211 5208 5204 5200 5195 5191 5186 5181 5174 5168 5162 5156 5150 5145 5141 5139 5138 5137 5137 5137 5137 5138 5138 5140 5142 5143 5145 5148 5150 5152 5153 5155 5158 5159 5161 5164 5166 5168 5170 5175 5181 5188 5195 5202 5208 5214 5220 5226 5231 5238 5245 5251 5257 5264 5269 5274 5280
5302 5299 5296 5294 5292 5288 5285 5282 5281 5279 5278 5275 5273 5270 5267 5264 5260 5256 5253 5248 5243 5236 5230 5225 5221 5217 5214 5210 5205 5201 5197 5193 5189 5184 5179 5174 5169 5163 5157 5151 5144 5139 5135 5133 5132 5131 5131 5130 5130 5130 5131 5133 5134 5135 5137 5139 5141 5143 5145 5147 5150 5151 5152 5154 5156 5158 5161 5166 5170 5176 5183 5189 5195 5201 5208 5214 5220 5226 5232 5238 5244 5251 5256 5262 5267
5295 5292 5289 5286 5284 5281 5278 5276 5275 5274 5272 5270 5267 5265 5261 5258 5254 5250 5246 5242 5237 5232 5227 5222 5216 5212 5208 5204 5200 5196 5191 5187 5182 5178 5173 5168 5163 5158 5152 5146 5140 5135 5131 5128 5126 5125 5125 5124 5124 5124 5124 5126 5127 5128 5130 5132 5133 5135 5137 5140 5142 5143 5145 5146 5148 5150 5153 5156 5160 5165 5171 5176 5183 5190 5196 5203 5209 5215 5221 5228 5234 5240 5245 5250 5255
5287 5285 5282 5279 5277 5274 5272 5270 5269 5268 5266 5264 5262 5259 5256 5252 5249 5245 5240 5235 5231 5226 5222 5218 5213 5208 5203 5199 5195 5190 5185 5181 5177 5173 5168 5163 5158 5153 5148 5142 5136 5131 5127 5124 5121 5120 5119 5118 5118 5118 5118 5119 5120 5121 5123 5125 5127 5128 5130 5132 5134 5136 5138 5139 5140 5142 5144 5146 5150 5154 5159 5165 5172 5179 5185 5192 5199 5205 5211 5218 5224 5229 5234 5239 5243
5280 5278 5275 5273 5270 5268 5266 5265 5264 5262 5261 5259 5257 5254 5251 5247 5243 5239 5235 5231 5226 5222 5217 5212 5208 5204 5198 5194 5189 5184 5179 5174 5170 5167 5163 5159 5154 5149 5143 5138 5132 5127 5123 5120 5117 5116 5114 5113 5113 5112 5112 5113 5113 5114 5116 5118 5121 5122 5124 5126 5128 5130 5131 5133 5134 5135 5136 5138 5141 5145 5150 5156 5162 5169 5176 5183 5189 5195 5202 5209 5214 5219 5224 5228 5233
5273 5271 5269 5266 5264 5262 5261 5260 5259 5257 5256 5254 5251 5248 5245 5242 5238 5235 5230 5226 5222 5217 5212 5208 5203 5199 5194 5190 5185 5180 5175 5169 5165 5161 5158 5153 5149 5144 5139 5134 5129 5124 5120 5116 5113 5111 5110 5108 5108 5107 5108 5108 5108 5109 5110 5112 5115 5117 5119 5120 5122 5123 5125 5126 5127 5128 5129 5132 5134 5138 5143 5148 5154 5161 5167 5174 5180 5186 5193 5199 5204 5209 5213 5219 5224
5267 5264 5262 5260 5258 5257 5256 5255 5254 5252 5251 5249 5246 5243 5240 5236 5233 5230 5226 5222 5217 5213 5209 5204 5199 5194 5190 5185 5181 5176 5171 5166 5161 5157 5154 5150 5145 5141 5136 5131 5126 5121 5116 5113 5110 5107 5105 5104 5103 5103 5103 5104 5104 5105 5106 5107 5109 5111 5112 5114 5115 5117 5118 5120 5121 5122 5124 5126 5129 5132 5136 5141 5147 5153 5159 5165 5171 5177 5183 5189 5194 5199 5204 5210 5216
5261 5258 5256 5254 5252 5251 5250 5250 5249 5247 5246 5244 5241 5238 5234 5231 5228 5225 5221 5217 5213 5208 5204 5200 5195 5190 5185 5180 5175 5171 5167 5163 5158 5154 5151 5147 5143 5138 5133 5128 5123 5118 5114 5110 5107 5104 5102 5100 5099 5099 5099 5099 5100 5100 5101 5102 5103 5105 5106 5108 5109 5110 5112 5113 5115 5117 5119 5121 5123 5126 5130 5134 5139 5145 5150 5156 5162 5168 5174 5180 5185 5191 5196 5202 5208
5255 5253 5250 5249 5247 5246 5246 5245 5244 5242 5241 5239 5236 5233 5229 5226 5223 5220 5216 5213 5209 5204 5199 5195 5190 5186 5180 5175 5170 5165 5161 5158 5154 5150 5147 5144 5140 5136 5131 5126 5121 5116 5112 5108 5105 5102 5099 5097 5096 5095 5094 5094 5094 5095 5096 5097 5098 5099 5100 5102 5103 5104 5106 5108 5109 5111 5113 5115 5118 5120 5124 5128 5132 5137 5142 5148 5154 5160 5166 5172 5178 5183 5189 5195 5201
5248 5247 5245 5243 5243 5242 5241 5240 5239 5238 5236 5234 5231 5228 5225 5222 5218 5215 5211 5208 5204 5200 5195 5190 5186 5181 5176 5171 5166 5161 5156 5152 5149 5145 5142 5139 5136 5132 5128 5124 5119 5115 5110 5106 5103 5099 5097 5095 5093 5091 5090 5090 5090 5090 5091 5092 5093 5094 5095 5096 5097 5099 5100 5102 5104 5106 5108 5110 5112 5115 5118 5122 5126 5131 5136 5142 5148 5154 5159 5165 5171 5177 5183 5189 5194
5242 5240 5239 5238 5238 5237 5237 5236 5235 5233 5232 5229 5226 5223 5220 5217 5214 5210 5207 5203 5199 5195 5191 5186 5181 5177 5172 5167 5162 5156 5152 5148 5144 5141 5138 5135 5132 5129 5125 5122 5118 5113 5109 5104 5101 5098 5095 5093 5091 5089 5088 5087 5086 5086 5087 5087 5088 5089 5090 5091 5092 5093 5095 5097 5098 5100 5103 5105 5108 5111 5114 5118 5122 5127 5132 5138 5143 5148 5154 5159 5165 5171 5177 5183 5188
5235 5234 5233 5233 5233 5233 5232 5232 5230 5229 5227 5225 5222 5219 5216 5213 5210 5206 5203 5199 5195 5191 5186 5182 5178 5173 5168 5163 5158 5153 5148 5144 5141 5137 5134 5131 5128 5125 5123 5119 5116 5112 5107 5103 5100 5096 5093 5091 5089 5087 5086 5085 5084 5084 5083 5084 5084 5085 5086 5087 5088 5089 5090 5092 5094 5096 5098 5101 5104 5107 5111 5114 5119 5123 5128 5133 5138 5143 5149 5154 5159 5165 5171 5177 5181
5228 5228 5228 5228 5228 5228 5228 5227 5226 5224 5222 5220 5217 5215 5212 5209 5206 5203 5199 5195 5191 5187 5182 5178 5174 5169 5164 5160 5155 5150 5145 5141 5137 5134 5131 5128 5125 5123 5120 5117 5114 5110 5106 5103 5099 5095 5092 5090 5088 5086 5085 5084 5083 5082 5082 5082 5082 5083 5083 5084 5085 5086 5088 5089 5091 5093 5096 5098 5101 5104 5108 5112 5116 5120 5124 5129 5134 5139 5144 5149 5154 5160 5166 5171 5175
5221 5222 5223 5224 5224 5224 5223 5222 5221 5219 5217 5215 5213 5211 5208 5205 5202 5199 5195 5192 5188 5184 5179 5175 5170 5165 5161 5156 5152 5147 5143 5139 5135 5132 5128 5126 5123 5121 5118 5116 5113 5109 5106 5102 5099 5095 5092 5089 5087 5086 5085 5083 5082 5082 5081 5081 5081 5082 5082 5083 5084 5085 5086 5088 5090 5092 5094 5097 5099 5102 5106 5109 5113 5117 5122 5126 5130 5135 5139 5144 5149 5155 5160 5164 5168
5216 5217 5219 5219 5219 5219 5218 5218 5216 5215 5213 5211 5209 5207 5204 5201 5198 5195 5192 5188 5184 5180 5176 5172 5167 5162 5158 5153 5149 5144 5140 5136 5133 5129 5126 5123 5121 5119 5117 5114 5111 5108 5105 5102 5099 5095 5092 5089 5087 5086 5084 5083 5082 5081 5081 5080 5081 5081 5081 5082 5083 5085 5086 5088 5090 5092 5094 5096 5098 5101 5104 5108 5111 5115 5119 5123 5127 5131 5135 5140 5145 5150 5154 5158 5161
5212 5213 5215 5215 5215 5215 5214 5213 5212 5210 5208 5207 5205 5202 5200 5197 5194 5191 5188 5184 5181 5177 5173 5169 5164 5160 5155 5151 5147 5143 5138 5134 5131 5127 5124 5122 5119 5117 5115 5112 5110 5108 5105 5102 5099 5096 5093 5090 5088 5086 5084 5083 5082 5081 5080 5080 5080 5080 5081 5082 5083 5085 5086 5088 5090 5091 5093 5095 5097 5099 5102 5106 5109 5112 5116 5119 5123 5127 5131 5136 5140 5145 5149 5152 5155
5208 5210 5211 5211 5211 5211 5210 5209 5207 5206 5204 5203 5201 5198 5196 5193 5190 5187 5184 5181 5177 5174 5170 5166 5162 5158 5153 5149 5145 5141 5137 5133 5129 5126 5123 5120 5117 5115 5113 5111 5109 5107 5104 5101 5099 5096 5093 5091 5088 5086 5085 5083 5082 5081 5080 5079 5079 5079 5080 5081 5083 5084 5086 5087 5088 5090 5091 5093 5095 5097 5100 5103 5106 5110 5113 5117 5120 5124 5128 5132 5136 5140 5143 5146 5149
5205 5206 5207 5207 5207 5207 5206 5205 5203 5202 5200 5199 5197 5194 5192 5189 5187 5184 5180 5177 5174 5170 5166 5163 5159 5155 5151 5148 5144 5140 5137 5133 5129 5125 5122 5119 5116 5114 5112 5109 5107 5106 5103 5101 5099 5096 5094 5091 5089 5087 5085 5084 5083 5081 5080 5080 5079 5079 5080 5081 5082 5084 5085 5086 5087 5088 5090 5092 5093 5095 5098 5100 5104 5107 5110 5114 5117 5120 5124 5128 5131 5135 5138 5141 5143
5202 5203 5203 5203 5203 5203 5202 5201 5200 5198 5197 5195 5193 5190 5188 5185 5183 5180 5177 5174 5170 5167 5163 5160 5156 5153 5150 5146 5143 5139 5136 5132 5129 5125 5122 5118 5116 5113 5111 5108 5106 5105 5103 5101 5098 5096 5094 5092 5090 5088 5086 5085 5083 5082 5081 5081 5080 5080 5080 5081 5082 5083 5084 5085 5086 5087 5089 5090 5092 5094 5097 5099 5102 5105 5108 5111 5114 5117 5120 5123 5127 5130 5133 5135 5137